Time,TemperatureF,DewpointF,PressureIn,WindDirection,WindDirectionDegrees,WindSpeedMPH,WindSpeedGustMPH,Humidity,HourlyPrecipIn,Conditions,Clouds,dailyrainin,SoftwareType,DateUTC
2013-11-10 08:13:00,-40.0,-49.4,29.84,NW,315,4.2,-999.0,57,-99.99,,,0.00,Acu-Link.com,2013-11-10 13:13:00,
2013-11-10 08:36:00,-40.0,-49.4,29.82,West,270,15.0,-999.0,57,-99.99,,,0.00,Acu-Link.com,2013-11-10 13:36:00,
2013-11-10 08:53:00,-40.0,-49.4,29.82,WSW,247,11.4,-999.0,57,-99.99,,,0.00,Acu-Link.com,2013-11-10 13:53:00,
2013-11-10 09:14:00,-40.0,-49.4,29.81,WNW,292,10.4,-999.0,57,-99.99,,,0.00,Acu-Link.com,2013-11-10 14:14:00,
2013-11-10 09:33:00,-40.0,-49.4,29.81,WNW,292,9.4,-999.0,57,-99.99,,,0.00,Acu-Link.com,2013-11-10 14:33:00,
2013-11-10 09:53:00,-40.0,-49.4,29.81,SW,225,13.5,-999.0,57,-99.99,,,0.00,Acu-Link.com,2013-11-10 14:53:00,
2013-11-10 10:08:00,-40.0,-49.4,29.83,WNW,292,9.9,-999.0,57,-99.99,,,0.00,Acu-Link.com,2013-11-10 15:08:00,
2013-11-10 10:23:00,-40.0,-49.4,29.82,West,270,8.9,-999.0,57,-99.99,,,0.00,Acu-Link.com,2013-11-10 15:23:00,
2013-11-10 10:38:00,-40.0,-49.4,29.85,NW,315,9.9,-999.0,57,-99.99,,,0.00,Acu-Link.com,2013-11-10 15:38:00,
2013-11-10 10:53:00,-40.0,-49.4,29.85,WNW,292,16.6,-999.0,57,-99.99,,,0.00,Acu-Link.com,2013-11-10 15:53:00,
2013-11-10 11:20:00,-40.0,-49.4,29.85,WNW,292,11.4,-999.0,57,-99.99,,,0.00,Acu-Link.com,2013-11-10 16:20:00,
2013-11-10 11:46:00,-40.0,-49.4,29.85,WNW,292,14.0,-999.0,57,-99.99,,,0.00,Acu-Link.com,2013-11-10 16:46:00,
2013-11-10 12:02:00,-40.0,-49.4,29.85,SW,225,16.6,-999.0,57,-99.99,,,0.00,Acu-Link.com,2013-11-10 17:02:00,
2013-11-10 12:17:00,-40.0,-49.4,29.86,West,270,14.5,-999.0,57,-99.99,,,0.00,Acu-Link.com,2013-11-10 17:17:00,
2013-11-10 12:32:00,-40.0,-49.4,29.86,WNW,292,22.7,-999.0,57,-99.99,,,0.00,Acu-Link.com,2013-11-10 17:32:00,
2013-11-10 12:47:00,-40.0,-49.4,29.89,West,270,15.0,-999.0,57,-99.99,,,0.00,Acu-Link.com,2013-11-10 17:47:00,
2013-11-10 13:03:00,-40.0,-49.4,29.89,NW,315,13.5,-999.0,57,-99.99,,,0.03,Acu-Link.com,2013-11-10 18:03:00,
2013-11-10 13:18:00,-40.0,-49.4,29.90,WNW,292,10.9,-999.0,57,-99.99,,,0.07,Acu-Link.com,2013-11-10 18:18:00,
2013-11-10 13:33:00,-40.0,-49.4,29.90,West,270,15.0,-999.0,57,-99.99,,,0.07,Acu-Link.com,2013-11-10 18:33:00,
2013-11-10 13:48:00,-40.0,-49.4,29.90,NW,315,14.0,-999.0,57,-99.99,,,0.07,Acu-Link.com,2013-11-10 18:48:00,
2013-11-10 14:04:00,-40.0,-49.4,29.91,West,270,17.1,-999.0,57,-99.99,,,0.07,Acu-Link.com,2013-11-10 19:04:00,
2013-11-10 14:19:00,-40.0,-49.4,29.91,West,270,6.3,-999.0,57,-99.99,,,0.07,Acu-Link.com,2013-11-10 19:19:00,
2013-11-10 14:34:00,-40.0,-49.4,29.92,WSW,247,8.9,-999.0,57,-99.99,,,0.07,Acu-Link.com,2013-11-10 19:34:00,
2013-11-10 14:49:00,-40.0,-49.4,29.92,WNW,292,13.0,-999.0,57,-99.99,,,0.07,Acu-Link.com,2013-11-10 19:49:00,
2013-11-10 15:04:00,-40.0,-49.4,29.91,WNW,292,7.8,-999.0,57,-99.99,,,0.07,Acu-Link.com,2013-11-10 20:04:00,
2013-11-10 15:20:00,-40.0,-49.4,29.93,WNW,292,9.9,-999.0,57,-99.99,,,0.07,Acu-Link.com,2013-11-10 20:20:00,
2013-11-10 15:35:00,-40.0,-49.4,29.94,WNW,292,13.0,-999.0,57,-99.99,,,0.07,Acu-Link.com,2013-11-10 20:35:00,
2013-11-10 15:50:00,-40.0,-49.4,29.95,WNW,292,10.9,-999.0,57,-99.99,,,0.07,Acu-Link.com,2013-11-10 20:50:00,
2013-11-10 16:06:00,-40.0,-49.4,29.95,WNW,292,18.6,-999.0,57,-99.99,,,0.07,Acu-Link.com,2013-11-10 21:06:00,
2013-11-10 16:21:00,-40.0,-49.4,29.96,WNW,292,10.9,-999.0,57,-99.99,,,0.07,Acu-Link.com,2013-11-10 21:21:00,
2013-11-10 16:36:00,-40.0,-49.4,29.97,WSW,247,5.8,-999.0,57,-99.99,,,0.07,Acu-Link.com,2013-11-10 21:36:00,
2013-11-10 16:51:00,-40.0,-49.4,29.97,West,270,7.8,-999.0,57,-99.99,,,0.07,Acu-Link.com,2013-11-10 21:51:00,
2013-11-10 17:06:00,-40.0,-49.4,29.98,WNW,292,13.5,-999.0,57,-99.99,,,0.07,Acu-Link.com,2013-11-10 22:06:00,
2013-11-10 17:21:00,-40.0,-49.4,30.00,NW,315,18.6,-999.0,57,-99.99,,,0.07,Acu-Link.com,2013-11-10 22:21:00,
2013-11-10 17:37:00,-40.0,-49.4,30.01,West,270,9.4,-999.0,57,-99.99,,,0.07,Acu-Link.com,2013-11-10 22:37:00,
2013-11-10 17:52:00,-40.0,-49.4,30.00,West,270,5.3,-999.0,57,-99.99,,,0.07,Acu-Link.com,2013-11-10 22:52:00,
2013-11-10 18:07:00,-40.0,-49.4,30.03,WSW,247,16.1,-999.0,57,-99.99,,,0.07,Acu-Link.com,2013-11-10 23:07:00,
2013-11-10 18:22:00,-40.0,-49.4,30.03,WNW,292,4.7,-999.0,57,-99.99,,,0.07,Acu-Link.com,2013-11-10 23:22:00,
2013-11-10 18:37:00,-40.0,-49.4,30.03,NNW,337,9.9,-999.0,57,-99.99,,,0.07,Acu-Link.com,2013-11-10 23:37:00,
2013-11-10 18:52:00,-40.0,-49.4,30.03,WNW,292,6.3,-999.0,57,-99.99,,,0.07,Acu-Link.com,2013-11-10 23:52:00,
2013-11-10 19:07:00,-40.0,-49.4,30.04,West,270,9.9,-999.0,57,-99.99,,,0.07,Acu-Link.com,2013-11-11 00:07:00,
2013-11-10 19:23:00,-40.0,-49.4,30.06,NNW,337,14.5,-999.0,57,-99.99,,,0.07,Acu-Link.com,2013-11-11 00:23:00,
2013-11-10 19:38:00,-40.0,-49.4,30.06,WSW,247,5.8,-999.0,57,-99.99,,,0.07,Acu-Link.com,2013-11-11 00:38:00,
2013-11-10 19:53:00,-40.0,-49.4,30.06,West,270,14.5,-999.0,57,-99.99,,,0.07,Acu-Link.com,2013-11-11 00:53:00,
2013-11-10 20:08:00,-40.0,-49.4,30.06,WNW,292,12.5,-999.0,57,-99.99,,,0.07,Acu-Link.com,2013-11-11 01:08:00,
2013-11-10 20:23:00,-40.0,-49.4,30.06,NW,315,7.8,-999.0,57,-99.99,,,0.07,Acu-Link.com,2013-11-11 01:23:00,
2013-11-10 20:38:00,-40.0,-49.4,30.06,West,270,13.5,-999.0,57,-99.99,,,0.07,Acu-Link.com,2013-11-11 01:38:00,
2013-11-10 20:54:00,-40.0,-49.4,30.07,West,270,10.4,-999.0,57,-99.99,,,0.07,Acu-Link.com,2013-11-11 01:54:00,
2013-11-10 21:09:00,-40.0,-49.4,30.08,West,270,8.9,-999.0,57,-99.99,,,0.07,Acu-Link.com,2013-11-11 02:09:00,
2013-11-10 21:24:00,-40.0,-49.4,30.09,WNW,292,5.8,-999.0,57,-99.99,,,0.07,Acu-Link.com,2013-11-11 02:24:00,
2013-11-10 21:39:00,-40.0,-49.4,30.11,NW,315,6.3,-999.0,57,-99.99,,,0.07,Acu-Link.com,2013-11-11 02:39:00,
2013-11-10 21:54:00,-40.0,-49.4,30.11,SW,225,5.3,-999.0,57,-99.99,,,0.07,Acu-Link.com,2013-11-11 02:54:00,
2013-11-10 22:09:00,-40.0,-49.4,30.10,West,270,5.3,-999.0,57,-99.99,,,0.07,Acu-Link.com,2013-11-11 03:09:00,
2013-11-10 22:25:00,-40.0,-49.4,30.11,SW,225,4.2,-999.0,57,-99.99,,,0.07,Acu-Link.com,2013-11-11 03:25:00,
2013-11-10 22:40:00,-40.0,-49.4,30.11,West,270,3.7,-999.0,57,-99.99,,,0.07,Acu-Link.com,2013-11-11 03:40:00,